Simultaneous Nadir Overpasses (SNOs) Predictions

Prediction of SNOs between GOES-15 and TERRA Satellite Orbit:

Table of predicted SNOs for the next 14.0 days since TLE Epoch: 6/2/2018
Index Date Time (GOES-15) GOES-15 Lat,Lon TERRA Lat,Lon Distance(km) Time Diff (sec)
1 06/03/2018 07:32:12 0.15,-134.84 0.12,-135.06 25.35 80
2 06/05/2018 07:17:21 0.16,-134.75 0.72,-132.10 300.99 80
3 06/05/2018 19:41:17 -0.14,-134.78 0.36,-137.26 282.44 80
4 06/07/2018 19:26:26 -0.15,-134.68 -0.24,-134.31 43.26 80
5 06/09/2018 19:14:15 -0.15,-134.59 -0.84,-131.35 368.39 80
6 06/10/2018 07:38:18 0.14,-134.51 -0.29,-136.53 229.71 80
7 06/12/2018 07:23:28 0.14,-134.41 0.31,-133.58 94.38 80
8 06/12/2018 19:47:23 -0.12,-134.43 0.77,-138.74 489.70 80
9 06/14/2018 07:11:17 0.15,-134.29 0.92,-130.62 417.49 80
10 06/14/2018 19:35:12 -0.13,-134.31 0.17,-135.78 166.80 80




NCC Satellite Simultaneous Nadir Overpasses (SNOs) Prediction Service
